[[{"header":{"parameterUnit":"m.s-1","parameterCategory":1,"la1":30.2991,"la2":30.254,"lo1":-89.0895,"lo2":-89.0444,"dy":0.0017,"dx":0.0017,"nx":28,"ny":28,"refTime":"2025-06-11T03:00:00:Z","depth":0,"parameterNumber":2,"parameterNumberName":"U-component_of_WINDS"},"data":[0,0,0,0,0,0,0,0,0,0,0,0,0,0,0,0,0,0,0,0,0,0,0,0,0,0,0,0,0,0,0,0,0,0,0,0,0,0,0,0,0,0,0,0,0,0,0,0,0,0,0,0,0,0,0,0,0,0,-0.4856,-0.4857,0,-0.4953,-0.4955,-0.4956,-0.5054,-0.5055,-0.5057,-0.5058,-0.5154,-0.5155,-0.5157,0,0,0,0,0,0,0,0,0,0,0,0,0,-0.4753,-0.4754,-0.4856,-0.4858,-0.4859,-0.4953,-0.4955,-0.4956,-0.5054,-0.5055,-0.5057,-0.5059,-0.5154,-0.5155,-0.5157,0,0,0,0,0,0,0,0,0,0,0,0,0,-0.4818,-0.4755,-0.4856,-0.4919,-0.4926,-0.4953,-0.4955,-0.4956,-0.5053,-0.5055,-0.5057,-0.5059,-0.5153,-0.5155,-0.5157,-0.5129,0,0,-0.5163,-0.5164,0,0,0,0,0,0,0,0,-0.4815,-0.4822,-0.4909,-0.4915,-0.4922,-0.4994,-0.4954,-0.5014,-0.5053,-0.5005,-0.5058,-0.506,-0.5099,-0.5106,-0.5119,-0.5134,-0.5138,-0.5163,-0.5164,-0.5165,-0.5166,0,0,0,0,0,0,0,-0.481,-0.4819,-0.4895,-0.491,-0.4918,-0.4942,-0.4953,-0.4965,-0.5039,-0.5009,-0.5017,-0.5027,-0.5103,-0.5117,-0.5122,-0.5139,-0.5163,-0.5165,-0.5166,-0.5167,-0.5136,-0.5134,0,0,0,0,0,0,-0.4796,-0.4814,-0.4892,-0.4898,-0.4872,-0.4942,-0.4955,-0.4969,-0.504,-0.5052,-0.5025,-0.5031,-0.5113,-0.512,-0.5126,-0.5098,-0.5165,-0.5167,-0.5168,-0.5138,-0.5135,-0.5133,0,0,0,0,0,0,-0.4794,-0.4802,-0.4888,-0.4858,-0.4871,-0.4941,-0.4956,-0.497,-0.4984,-0.5052,-0.5065,-0.5026,-0.5115,-0.5123,-0.5128,-0.5103,-0.5168,-0.517,-0.514,-0.5137,-0.5134,-0.5041,0,0,0,0,0,0,-0.479,-0.4801,-0.4791,-0.4857,-0.4872,-0.4888,-0.4955,-0.497,-0.4987,-0.4996,-0.5056,-0.5068,-0.5117,-0.5124,-0.513,-0.5107,-0.5171,-0.5143,-0.5139,-0.5135,-0.5047,-0.5035,-0.5026,0,0,0,0,0,-0.4786,-0.4761,-0.479,-0.4799,-0.4862,-0.4887,-0.4895,-0.4953,-0.4985,-0.4976,-0.5019,-0.5066,-0.5105,-0.5124,-0.5131,-0.5108,-0.5144,-0.514,-0.5135,-0.5052,-0.5038,-0.5026,0,0,0,0,0,0,-0.4689,-0.477,-0.4804,-0.48,-0.4836,-0.4903,-0.4894,-0.4936,-0.4963,-0.497,-0.504,-0.5053,-0.5049,-0.5079,-0.5099,-0.5085,-0.5131,-0.5128,-0.5065,-0.5052,-0.5042,-0.5034,-0.5173,0,0,0,0,0,-0.4667,-0.4682,-0.4752,-0.4741,-0.4757,-0.4822,-0.4835,-0.4877,-0.4916,-0.4932,-0.4976,-0.5012,-0.5032,-0.5044,-0.5067,-0.5052,-0.5066,-0.5039,-0.5029,-0.502,-0.5016,-0.501,-0.4999,-0.5118,-0.5118,-0.5118,0,0,-0.4622,-0.4668,-0.4673,-0.4722,-0.4755,-0.4768,-0.4834,-0.4845,-0.4854,-0.4933,-0.4941,-0.4974,-0.5019,-0.5013,-0.5013,-0.5038,-0.4986,-0.5014,-0.5006,-0.5007,-0.5004,-0.4993,-0.4983,-0.5115,-0.5116,-0.5116,0,0,-0.4546,-0.4583,-0.4578,-0.4609,-0.4659,-0.4702,-0.4701,-0.4762,-0.4788,-0.4797,-0.4856,-0.4868,-0.4902,-0.4931,-0.4951,-0.4886,-0.4929,-0.4891,-0.4835,-0.4829,-0.4819,-0.4811,-0.4788,-0.4778,-0.4887,-0.4887,-0.4887,0,-0.4483,-0.4505,-0.4569,-0.4576,-0.4596,-0.4669,-0.4664,-0.4691,-0.4745,-0.4756,-0.4784,-0.4828,-0.4863,-0.4866,-0.485,-0.4863,-0.4863,-0.4884,-0.4816,-0.4808,-0.4802,-0.478,-0.4771,-0.4882,-0.4882,-0.4883,-0.4883,0,-0.4425,-0.444,-0.4429,-0.448,-0.4499,-0.45,-0.4563,-0.4574,-0.4614,-0.4654,-0.4661,-0.4706,-0.4739,-0.4743,-0.4782,-0.4751,-0.4765,-0.4803,-0.4851,-0.4784,-0.4765,-0.4757,-0.4875,-0.4876,-0.4878,-0.4879,0,0,-0.429,-0.4377,-0.4372,-0.4396,-0.4456,-0.4468,-0.4472,-0.4505,-0.4513,-0.4547,-0.4552,-0.4579,-0.4615,-0.4636,-0.4679,-0.4673,-0.4619,-0.4713,-0.4715,-0.4693,-0.4587,-0.4557,-0.4547,-0.4648,-0.4647,-0.4646,-0.4583,0,-0.4224,-0.4236,-0.4294,-0.4288,-0.4302,-0.4372,-0.4375,-0.4412,-0.4449,-0.4466,-0.4507,-0.4525,-0.4571,-0.4585,-0.4583,-0.4626,-0.4598,-0.4631,-0.4652,-0.4652,-0.4638,-0.4537,-0.4506,-0.4444,-0.4576,-0.4575,-0.4574,0,-0.4148,-0.4179,-0.4175,-0.4235,-0.4243,-0.4245,-0.428,-0.4295,-0.4338,-0.4366,-0.439,-0.4438,-0.4445,-0.4491,-0.4501,-0.4522,-0.4534,-0.4557,-0.4556,-0.4559,-0.4608,-0.4537,-0.4426,-0.4416,-0.4563,-0.4564,-0.4564,0,-0.4049,-0.4089,-0.4093,-0.4111,-0.4181,-0.4181,-0.421,-0.4255,-0.4271,-0.4301,-0.4313,-0.4343,-0.4359,-0.4381,-0.4436,-0.4464,-0.444,-0.449,-0.4462,-0.446,-0.4453,-0.4453,-0.4342,-0.4462,-0.4462,-0.4462,-0.4462,0,-0.3969,-0.3963,-0.4049,-0.4051,-0.4047,-0.4113,-0.4107,-0.4142,-0.4182,-0.4191,-0.4253,-0.426,-0.4333,-0.4348,-0.4391,-0.4393,-0.4399,-0.4421,-0.4433,-0.4416,-0.4413,-0.4424,-0.4429,-0.4459,-0.446,-0.446,-0.4461,0,-0.3857,-0.3914,-0.3922,-0.3988,-0.4005,-0.3999,-0.4055,-0.4059,-0.4101,-0.4112,-0.4118,-0.4183,-0.4204,-0.4261,-0.4297,-0.4326,-0.4315,-0.4337,-0.4301,-0.4308,-0.4277,-0.4279,-0.4169,-0.4158,-0.4284,-0.4283,-0.4282,0,-0.3802,-0.3799,-0.3865,-0.3877,-0.3903,-0.392,-0.3938,-0.4003,-0.4018,-0.4066,-0.4064,-0.409,-0.4115,-0.4145,-0.4195,-0.4222,-0.4245,-0.4205,-0.4249,-0.4232,-0.4244,-0.4243,-0.4243,-0.4194,-0.4193,-0.4191,-0.419,0,-0.3697,-0.3726,-0.3749,-0.3781,-0.38,-0.3829,-0.3861,-0.3866,-0.3939,-0.3953,-0.3976,-0.3995,-0.4032,-0.4057,-0.4092,-0.4121,-0.4167,-0.4176,-0.4171,-0.4153,-0.4132,-0.4142,-0.4273,-0.4178,-0.4179,-0.418,-0.4181,-0.4181,-0.3612,-0.3613,-0.366,-0.3683,-0.3715,-0.3743,-0.375,-0.3793,-0.3814,-0.3849,-0.3886,-0.3905,-0.3948,-0.4,-0.4026,-0.4041,-0.4065,-0.4058,-0.4056,-0.4053,-0.4045,-0.413,-0.4048,-0.4048,-0.4049,-0.4049,-0.4049,0,-0.351,-0.3544,-0.3565,-0.3608,-0.3626,-0.367,-0.3707,-0.3719,-0.3735,-0.3772,-0.3795,-0.3821,-0.3846,-0.3898,-0.3927,-0.3929,-0.3951,-0.3934,-0.3935,-0.3941,-0.4022,-0.4023,-0.3916,-0.3916,-0.3916,-0.3916,-0.3916,-0.3916,-0.3459,-0.3464,-0.3498,-0.3518,-0.3552,-0.3572,-0.3589,-0.3616,-0.3645,-0.3672,-0.3693,-0.3727,-0.377,-0.3803,-0.3827,-0.3842,-0.3849,-0.3826,-0.3847,-0.3922,-0.3935,-0.3947,-0.3948,-0.3827,-0.3827,-0.3765,-0.3764,-0.3764]},{"header":{"parameterUnit":"m.s-1","parameterCategory":1,"la1":30.2991,"la2":30.254,"lo1":-89.0895,"lo2":-89.0444,"dy":0.0017,"dx":0.0017,"nx":28,"ny":28,"refTime":"2025-06-11T03:00:00:Z","depth":0,"parameterNumber":3,"parameterNumberName":"V-component_of_WINDS"},"data":[0,0,0,0,0,0,0,0,0,0,0,0,0,0,0,0,0,0,0,0,0,0,0,0,0,0,0,0,0,0,0,0,0,0,0,0,0,0,0,0,0,0,0,0,0,0,0,0,0,0,0,0,0,0,0,0,0,0,-1.0927,-1.0927,0,-1.0942,-1.0942,-1.0942,-1.0986,-1.0987,-1.0988,-1.0989,-1.1001,-1.1001,-1.1,0,0,0,0,0,0,0,0,0,0,0,0,0,-1.0934,-1.0933,-1.0927,-1.0927,-1.0927,-1.0942,-1.0942,-1.0942,-1.0986,-1.0987,-1.0988,-1.0989,-1.1002,-1.1001,-1.1,0,0,0,0,0,0,0,0,0,0,0,0,0,-1.0938,-1.0933,-1.0927,-1.0951,-1.0953,-1.0942,-1.0942,-1.0942,-1.0986,-1.0987,-1.0988,-1.099,-1.1002,-1.1001,-1.1,-1.0966,0,0,-1.0998,-1.0997,0,0,0,0,0,0,0,0,-1.0937,-1.0937,-1.0947,-1.0949,-1.0952,-1.0964,-1.0949,-1.095,-1.0985,-1.0973,-1.0989,-1.0991,-1.0987,-1.0988,-1.0987,-1.0966,-1.0967,-1.0997,-1.0997,-1.0997,-1.0996,0,0,0,0,0,0,0,-1.0937,-1.0937,-1.0933,-1.0947,-1.095,-1.096,-1.0962,-1.0949,-1.0972,-1.0974,-1.0978,-1.0979,-1.0989,-1.0988,-1.0988,-1.0967,-1.0997,-1.0997,-1.0996,-1.0996,-1.0917,-1.0915,0,0,0,0,0,0,-1.0934,-1.0936,-1.0932,-1.0933,-1.0948,-1.0959,-1.0961,-1.0958,-1.0972,-1.0976,-1.0978,-1.0981,-1.0989,-1.0989,-1.0989,-1.0948,-1.0997,-1.0996,-1.0995,-1.0919,-1.0917,-1.0915,0,0,0,0,0,0,-1.0934,-1.0933,-1.0932,-1.0936,-1.0936,-1.0957,-1.0953,-1.0958,-1.0957,-1.0975,-1.0979,-1.0973,-1.099,-1.099,-1.0971,-1.0949,-1.0995,-1.0995,-1.092,-1.0918,-1.0916,-1.0866,0,0,0,0,0,0,-1.0934,-1.0933,-1.092,-1.0935,-1.0936,-1.0914,-1.0952,-1.0957,-1.0956,-1.096,-1.0971,-1.0974,-1.0991,-1.0972,-1.097,-1.0948,-1.0994,-1.0922,-1.0919,-1.0917,-1.087,-1.0862,-1.0856,0,0,0,0,0,-1.0934,-1.0906,-1.092,-1.0919,-1.0921,-1.0913,-1.0913,-1.0934,-1.0954,-1.0941,-1.0952,-1.0974,-1.0952,-1.097,-1.0968,-1.0946,-1.0924,-1.092,-1.0917,-1.0873,-1.0864,-1.0856,0,0,0,0,0,0,-1.0887,-1.0908,-1.0924,-1.09,-1.0904,-1.0921,-1.0905,-1.0924,-1.0922,-1.0926,-1.0952,-1.0954,-1.0931,-1.0937,-1.0956,-1.0912,-1.0941,-1.0937,-1.0909,-1.09,-1.0894,-1.0891,-1.0993,0,0,0,0,0,-1.0874,-1.0866,-1.0885,-1.0862,-1.0864,-1.0884,-1.0881,-1.0897,-1.0902,-1.0904,-1.0914,-1.0918,-1.0911,-1.0907,-1.0902,-1.0872,-1.0874,-1.0856,-1.0849,-1.0843,-1.0838,-1.0821,-1.0812,-1.0903,-1.0903,-1.0903,0,0,-1.0847,-1.0857,-1.0851,-1.0853,-1.0858,-1.0849,-1.0885,-1.0874,-1.0866,-1.0902,-1.0884,-1.0892,-1.0898,-1.0872,-1.0862,-1.0877,-1.0814,-1.0838,-1.0834,-1.0832,-1.0816,-1.0807,-1.08,-1.0901,-1.0901,-1.0902,0,0,-1.0791,-1.08,-1.0781,-1.0786,-1.0794,-1.0807,-1.0803,-1.0816,-1.0822,-1.0806,-1.0832,-1.0823,-1.0813,-1.0815,-1.0814,-1.076,-1.0779,-1.0758,-1.0721,-1.0704,-1.0696,-1.069,-1.0668,-1.066,-1.0754,-1.0754,-1.0754,0,-1.0756,-1.0743,-1.0768,-1.0755,-1.0754,-1.0787,-1.0767,-1.0771,-1.0776,-1.0774,-1.0792,-1.0778,-1.0784,-1.0759,-1.0746,-1.0746,-1.0739,-1.0756,-1.0696,-1.069,-1.0684,-1.0663,-1.0655,-1.0751,-1.0752,-1.0752,-1.0752,0,-1.0698,-1.0689,-1.0673,-1.0678,-1.0676,-1.0659,-1.068,-1.0675,-1.0691,-1.0702,-1.0684,-1.0693,-1.069,-1.0685,-1.0701,-1.0662,-1.067,-1.0691,-1.0721,-1.0672,-1.0653,-1.0645,-1.0747,-1.0748,-1.0749,-1.075,0,0,-1.0612,-1.0632,-1.0625,-1.0627,-1.0638,-1.0631,-1.0616,-1.0614,-1.0607,-1.0611,-1.0597,-1.0587,-1.0606,-1.0606,-1.0622,-1.0607,-1.0561,-1.063,-1.063,-1.0614,-1.0515,-1.0497,-1.0488,-1.0574,-1.0573,-1.0572,-1.0514,0,-1.0557,-1.0532,-1.0554,-1.0525,-1.0515,-1.0547,-1.0533,-1.0538,-1.0549,-1.0541,-1.0553,-1.0545,-1.0572,-1.0572,-1.0559,-1.0569,-1.054,-1.0574,-1.0559,-1.0558,-1.0554,-1.0478,-1.046,-1.0404,-1.0507,-1.0506,-1.0505,0,-1.049,-1.0491,-1.046,-1.0473,-1.047,-1.0457,-1.0456,-1.045,-1.0455,-1.0464,-1.0464,-1.0484,-1.0468,-1.0499,-1.0476,-1.0498,-1.0494,-1.0498,-1.0496,-1.0493,-1.0526,-1.047,-1.0387,-1.0377,-1.0494,-1.0495,-1.0495,0,-1.0427,-1.042,-1.04,-1.0402,-1.0417,-1.0406,-1.0412,-1.042,-1.0417,-1.0416,-1.0414,-1.0411,-1.0409,-1.0406,-1.0424,-1.0445,-1.0398,-1.0431,-1.0402,-1.0401,-1.0388,-1.0388,-1.03,-1.039,-1.0391,-1.0391,-1.0391,0,-1.0362,-1.0341,-1.0372,-1.0359,-1.0337,-1.0362,-1.0339,-1.0348,-1.0354,-1.0343,-1.0371,-1.0359,-1.0386,-1.0376,-1.0391,-1.0368,-1.0368,-1.0373,-1.0376,-1.0368,-1.0367,-1.0364,-1.0367,-1.0389,-1.0389,-1.0389,-1.039,0,-1.0286,-1.0306,-1.0286,-1.0303,-1.0306,-1.0288,-1.0302,-1.029,-1.0303,-1.0288,-1.0286,-1.0306,-1.0297,-1.0315,-1.0309,-1.0318,-1.0285,-1.0297,-1.0283,-1.0285,-1.0255,-1.0256,-1.0159,-1.0146,-1.0247,-1.0246,-1.0245,0,-1.0242,-1.0227,-1.0241,-1.0236,-1.0241,-1.0232,-1.0229,-1.0254,-1.025,-1.0255,-1.0242,-1.0236,-1.0231,-1.0215,-1.0227,-1.0222,-1.0231,-1.0197,-1.023,-1.0222,-1.0227,-1.0226,-1.0224,-1.0189,-1.0188,-1.0187,-1.0186,0,-1.016,-1.0171,-1.0166,-1.0165,-1.0161,-1.0161,-1.0163,-1.0157,-1.0183,-1.0176,-1.0168,-1.0164,-1.0158,-1.015,-1.0147,-1.0152,-1.0172,-1.0177,-1.0169,-1.0159,-1.0151,-1.0152,-1.0262,-1.0178,-1.0179,-1.0179,-1.018,-1.018,-1.0097,-1.0084,-1.0092,-1.0086,-1.009,-1.0091,-1.0081,-1.0093,-1.0086,-1.0083,-1.0098,-1.0085,-1.0091,-1.009,-1.0092,-1.0081,-1.0096,-1.0086,-1.0083,-1.0079,-1.0073,-1.0156,-1.0081,-1.0082,-1.0082,-1.0082,-1.0082,0,-1.0014,-1.0021,-1.0015,-1.0017,-1.0012,-1.0034,-1.0037,-1.003,-1.0019,-1.0023,-1.0019,-1.0008,-1.0,-1.0013,-1.0007,-0.9996,-1.0005,-0.9993,-0.9992,-0.9993,-1.0062,-1.0067,-0.9986,-0.9986,-0.9986,-0.9986,-0.9986,-0.9986,-0.997,-0.9949,-0.9961,-0.9942,-0.9949,-0.9938,-0.9937,-0.9938,-0.9941,-0.9927,-0.9922,-0.9931,-0.9937,-0.9932,-0.9926,-0.9929,-0.9924,-0.9909,-0.9915,-0.9979,-0.9988,-0.9997,-1.0002,-0.9908,-0.9908,-0.9847,-0.9846,-0.9846]}]]